Regional Weather Roundup
Issued by NWS Huntsville, AL

Home | Current Version | Previous Version | Text Only | Print | Product List | Glossary On
Versions: 1 2 3 4 5 6 7 8 9 10 11 12 13 14 15 16 17 18 19 20 21 22 23 24 25 26 27
000
ASUS44 KHUN 210710
RWRHUN

WEATHER ROUNDUP FOR THE TENNESSEE VALLEY
NATIONAL WEATHER SERVICE HUNTSVILLE AL
200 AM CDT SAT APR 21 2018

ALZ001>004-210800-
NORTHWEST ALABAMA

CITY           SKY/WX    TMP DP  RH WIND       PRES   REMARKS
SHOALS AIRPORT FAIR      45  41  86 CALM      30.27F
$$

ALZ005>007-016-210800-
NORTH CENTRAL ALABAMA

CITY           SKY/WX    TMP DP  RH WIND       PRES   REMARKS
DECATUR AP     FAIR      45  38  76 E5        30.28F
HUNTSVILLE AP  FAIR      47  40  76 E3        30.27F
MERIDIANVILLE  CLEAR     43  38  83 CALM      30.28F
REDSTONE ARSN  FAIR      46  35  67 N5        30.27S
VINEMONT AP    FAIR      39  37  92 CALM      30.28F
$$

ALZ008>010-210800-
NORTHEAST ALABAMA

CITY           SKY/WX    TMP DP  RH WIND       PRES   REMARKS
ALBERTVILLE    FAIR      45  41  87 NE6       30.27S
FORT PAYNE     FAIR      37  32  81 CALM      30.28S
SCOTTSBORO AP  FAIR      43  41  93 CALM      30.30S
$$

TNZ076-096-097-210800-
SOUTHEASTERN MIDDLE TENNESSEE

CITY           SKY/WX    TMP DP  RH WIND       PRES   REMARKS
TULLAHOMA      CLOUDY    43  32  65 CALM      30.28F
WINCHESTER     CLEAR     39  36  87 CALM      30.28F
$$

...SURROUNDING SITES...

CITY           SKY/WX    TMP DP  RH WIND       PRES   REMARKS
ATLANTA        FAIR      53  35  50 E3        30.28S
ANNISTON       FAIR      43  39  86 CALM      30.28S
BIRMINGHAM     FAIR      47  38  71 E3        30.29R
CHATTANOOGA    FAIR      44  39  82 CALM      30.30S
CORINTH        FAIR      45  37  76 CALM      30.24F
DALTON         FAIR      41  37  87 CALM      30.31S
GADSDEN        FAIR      40  39  97 CALM      30.29R
GOLDEN TRNGL   FAIR      51  38  60 E7        30.22F
HALEYVILLE     FAIR      40  40 100 NE3       30.28F
JACKSON TN     FAIR      50  34  54 E6        30.26F
MEMPHIS        FAIR      51  34  52 E8        30.22F
NASHVILLE      FAIR      48  30  49 NE3       30.32F
OXFORD MS      FAIR      48  37  66 E5        30.24S
ROME           FAIR      41  39  93 NE3       30.29S
SAVANNAH       CLEAR     45  36  70 CALM      30.25F
SELMER         CLEAR     50  32  50 NE5       30.24F
TUPELO         FAIR      45  38  76 N7        30.24S
TUSCALOOSA     FAIR      47  44  90 CALM      30.24F
$$

...GULF COAST WEATHER...

CITY           SKY/WX    TMP DP  RH WIND       PRES   REMARKS
GULFPORT       FAIR      53  49  86 CALM      30.15F
PASCAGOULA     FAIR      48  46  93 CALM      30.16S
MOBILE         FAIR      56  48  74 MISG      30.17S
GULF SHORES    FAIR      49  49  99 CALM      30.16F
PENSACOLA      MOCLDY    64  47  53 E9        30.15
DESTIN         MOCLDY    66  48  52 E9        30.16F
PANAMA CITY    FAIR      61  51  70 E5        30.18F
APPALACHICOLA  CLOUDY    67  62  84 E16       30.16S
$$





USA.gov is the U.S. government's official web portal to all federal, state and local government web resources and services.